FW5955 Weather Reports


time (UTC)temp
C
wind
direction
speed
KPH
gust
KPH
rain 1hr
cm
rain 24hr
cm
rain mn
cm
humidity
%
barometer
mb
20260906110054 13 20 1.6 16.1 0.00 0.33 0.08 92 1003.6
20260906104613 13 338 1.6 17.7 0.00 0.33 0.08 92 1003.6
20260906103052 13 122 3.2 12.9 0.00 0.33 0.08 92 1003.4
20260906101551 13 236 0.0 9.7 0.00 0.33 0.08 92 1003.3
20260906100049 12 13 3.2 19.3 0.00 0.33 0.08 92 1003.2
20260906094612 12 113 1.6 12.9 0.00 0.33 0.08 93 1003.0
20260906093047 12 61 1.6 19.3 0.00 0.33 0.08 93 1002.9
20260906091547 12 257 1.6 14.5 0.00 0.33 0.08 93 1002.7
20260906090045 12 77 3.2 16.1 0.00 0.33 0.08 93 1002.7
20260906084543 12 60 3.2 14.5 0.03 0.36 0.08 93 1002.8
20260906083042 12 115 3.2 12.9 0.05 0.36 0.08 93 1002.7
20260906081548 12 49 3.2 12.9 0.05 0.36 0.08 93 1002.6
20260906080046 12 342 3.2 17.7 0.05 0.36 0.08 93 1002.6
20260906074538 12 251 3.2 17.7 0.05 0.36 0.05 93 1002.6
20260906073036 13 165 3.2 17.7 0.03 0.33 0.03 93 1002.7
20260906071535 13 127 3.2 14.5 0.03 0.33 0.03 93 1002.7
20260906070033 13 72 3.2 17.7 0.03 0.33 0.03 92 1002.5
20260906064531 13 290 3.2 19.3 0.00 0.30 0.00 92 1002.5
20260906063033 13 257 3.2 16.1 0.00 0.30 0.00 92 1002.5
20260906061536 13 73 4.8 20.9 0.00 0.30 0.00 91 1002.5
20260906060027 13 68 4.8 17.7 0.00 0.30 0.00 91 1002.5
20260906054523 13 172 4.8 20.9 0.00 0.30 0.00 91 1002.3
20260906053023 13 209 3.2 17.7 0.00 0.30 0.00 91 1002.4
20260906051521 13 323 4.8 24.1 0.00 0.30 0.00 91 1002.3
20260906050021 13 180 3.2 19.3 0.00 0.30 0.00 91 1002.3
20260906044519 13 32 4.8 24.1 0.00 0.30 0.00 91 1002.5
20260906043015 13 142 4.8 19.3 0.00 0.30 0.00 91 1002.4
20260906041514 14 269 4.8 17.7 0.00 0.30 0.00 91 1002.5
20260906040013 14 144 6.4 16.1 0.00 0.30 0.00 91 1002.6
20260906034511 13 45 4.8 16.1 0.00 0.30 0.00 91 1002.5
20260906033009 13 62 3.2 22.5 0.00 0.30 0.00 91 1002.7
20260906031509 13 80 3.2 12.9 0.00 0.30 0.00 91 1002.9
20260906030005 13 325 4.8 22.5 0.00 0.30 0.00 91 1002.7
20260906024504 13 289 4.8 25.7 0.00 0.30 0.30 91 1002.7
20260906023004 13 274 4.8 20.9 0.00 0.30 0.30 91 1002.6
20260906021502 13 191 6.4 16.1 0.00 0.30 0.30 91 1002.7
20260906020002 13 22 3.2 17.7 0.00 0.30 0.30 91 1002.9
20260906014601 13 146 4.8 17.7 0.00 0.30 0.30 92 1003.1
20260906013059 13 41 6.4 20.9 0.00 0.30 0.30 92 1003.0
20260906011558 13 324 3.2 17.7 0.00 0.30 0.30 92 1002.9
20260906010106 13 222 4.8 20.9 0.00 0.30 0.30 92 1003.1
20260906004558 13 91 4.8 17.7 0.00 0.30 0.30 92 1003.2
20260906003059 13 336 3.2 14.5 0.00 0.30 0.30 93 1003.1
20260906001606 13 85 6.4 20.9 0.00 0.30 0.30 93 1003.1
20260906000054 13 260 4.8 17.7 0.00 0.30 0.30 93 1003.1
20260905234551 13 47 4.8 16.1 0.03 0.30 0.30 93 1002.9
20260905233054 13 209 3.2 25.7 0.03 0.30 0.30 93 1002.7
20260905231548 13 114 4.8 20.9 0.05 0.30 0.30 93 1002.6
20260905230052 13 4 3.2 22.5 0.10 0.30 0.30 93 1002.5
20260905224554 13 74 3.2 14.5 0.08 0.28 0.28 93 1002.2
20260905223046 13 105 3.2 19.3 0.08 0.28 0.28 93 1002.1
20260905221547 13 79 3.2 14.5 0.05 0.23 0.23 93 1002.0
20260905220039 14 134 3.2 19.3 0.05 0.20 0.20 93 1002.0
20260905214537 14 92 4.8 17.7 0.05 0.20 0.20 92 1001.9
20260905213036 14 249 4.8 20.9 0.05 0.20 0.20 92 1001.8
20260905211543 14 173 4.8 17.7 0.03 0.18 0.18 92 1001.7
20260905210038 14 125 6.4 24.1 0.00 0.15 0.15 91 1001.6
20260905204530 15 143 6.4 24.1 0.00 0.15 0.15 91 1001.4
20260905203032 15 357 6.4 24.1 0.00 0.15 0.15 91 1001.2
20260905201527 15 70 4.8 19.3 0.00 0.15 0.15 91 1001.1
20260905200035 15 59 6.4 17.7 0.03 0.15 0.15 91 1001.1
20260905194522 14 195 3.2 19.3 0.05 0.15 0.15 92 1000.9
20260905193019 14 36 6.4 20.9 0.05 0.15 0.15 92 1000.7
20260905191516 14 74 6.4 32.2 0.05 0.15 0.15 92 1000.6
20260905190014 15 27 4.8 25.7 0.03 0.15 0.15 91 1000.6
20260905184512 15 108 4.8 19.3 0.00 0.13 0.13 91 1000.5
20260905183010 15 53 8.0 22.5 0.00 0.13 0.13 91 1000.2
20260905181508 15 210 4.8 24.1 0.00 0.13 0.13 90 1000.1
20260905180008 15 284 4.8 33.8 0.00 0.13 0.13 90 1000.0
20260905174506 15 241 4.8 25.7 0.00 0.13 0.13 89 999.9
20260905173007 15 77 6.4 29.0 0.00 0.13 0.13 90 999.9
20260905171511 15 35 8.0 22.5 0.00 0.13 0.13 91 999.6
20260905170003 16 70 8.0 17.7 0.00 0.13 0.13 91 999.4
20260905164502 16 99 8.0 29.0 0.00 0.13 0.13 91 999.3
20260905163001 16 32 9.7 29.0 0.00 0.13 0.13 91 999.1
20260905161609 17 85 6.4 24.1 0.00 0.13 0.13 90 999.0
20260905160100 17 48 6.4 27.4 0.00 0.13 0.13 88 998.9
20260905154600 17 228 6.4 32.2 0.00 0.15 0.13 88 998.9
20260905153059 16 305 8.0 29.0 0.00 0.15 0.13 89 998.8
20260905151558 16 347 6.4 17.7 0.00 0.15 0.13 89 998.9
20260905150058 16 30 4.8 17.7 0.00 0.15 0.13 89 999.0
20260905144558 16 36 3.2 14.5 0.00 0.36 0.13 89 999.2
20260905143057 17 20 4.8 14.5 0.00 0.36 0.13 89 999.1
20260905141556 17 188 3.2 25.7 0.00 0.36 0.13 90 999.1
20260905140053 16 223 4.8 24.1 0.00 0.36 0.13 90 999.0
20260905134557 16 329 3.2 14.5 0.00 0.43 0.13 91 998.8
20260905133052 16 90 4.8 24.1 0.00 0.43 0.13 92 998.7
20260905131553 16 184 3.2 24.1 0.00 0.43 0.13 93 998.6
20260905130050 16 49 3.2 16.1 0.00 0.43 0.13 93 998.6
20260905124550 16 79 6.4 20.9 0.03 0.79 0.13 93 998.6
20260905123048 16 290 6.4 16.1 0.08 0.79 0.13 93 998.7
20260905121548 16 342 3.2 22.5 0.08 0.79 0.13 94 998.5
20260905120047 16 257 3.2 14.5 0.05 0.76 0.10 94 998.1
20260905114559 15 108 1.6 6.4 0.05 0.86 0.10 94 998.1
20260905113046 15 255 1.6 8.0 0.00 0.79 0.05 93 998.0
20260905111547 16 238 1.6 9.7 0.00 0.79 0.05 94 998.1